User: anonymous   Login
Location: Unspecified
(0.0000°N, 0.0000°E)
Time: 21:51:38
(UTC+00:00)
Language:

MMS 1 - Orbit

View from above orbital plane
View from above orbital plane
View from above satellite
View from above satellite

Ground track
Ground track

The orbit is defined by the following mean orbital elements,

1 40482U          26145.58335647 +.00000000 +00000-0 +00000-0 0 00000
2 40482  71.8295 349.1004 8341312 166.9221 152.7380  0.28352392    02
Epoch (UTC): 25 May 2026 14:00:01
Eccentricity: 0.8341312
inclination: 71.8295°
perigee height: 9856 km
apogee height: 173139 km
right ascension of ascending node: 349.1004°
argument of perigee: 166.9221°
revolutions per day: 0.28352392
mean anomaly at epoch: 152.7380°

The dashed part of the orbit path shows where the satellite is in the earth's shadow,  

DLR